Location: Newark
(47.4417°N, 1.1394°W)
Time: 23:47:45
(UTC+00:00)

Envisat - Pass Details

Date: 26 November 2019
Orbit: 764 x 766 km, 98.1° (Epoch: 12 December)

Event Time Altitude Azimuth Distance (km) Brightness Sun altitude
Rises 17:55:54 0° 165° (SSE) 3,220 6.2 -16.0°
Reaches altitude 10° 17:58:12 10° 166° (SSE) 2,298 5.5 -16.3°
Maximum altitude 18:03:16 87° 256° (WSW) 774 3.0 -17.2°
Drops below altitude 10° 18:08:23 10° 346° (NNW) 2,313 5.5 -18.0°
Sets 18:10:42 0° 347° (NNW) 3,244 6.3 -18.4°
